| time (UTC) | temp C | wind direction | speed KPH | gust KPH | rain 1hr cm | rain 24hr cm | rain mn cm | humidity % | barometer mb |
| 20260507052759 | 11 | 304 | 1.6 | 9.7 | 0.00 | 0.00 | 0.00 | 52 | 1005.1 |
| 20260507051259 | 11 | 304 | 9.7 | 11.3 | 0.00 | 0.00 | 0.00 | 52 | 1005.4 |
| 20260507045759 | 11 | 285 | 3.2 | 9.7 | 0.00 | 0.00 | 0.00 | 52 | 1005.4 |
| 20260507044259 | 11 | 268 | 6.4 | 11.3 | 0.00 | 0.00 | 0.00 | 52 | 1005.4 |
| 20260507042759 | 11 | 229 | 4.8 | 11.3 | 0.00 | 0.00 | 0.00 | 52 | 1005.4 |
| 20260507041259 | 11 | 249 | 3.2 | 16.1 | 0.00 | 0.00 | 0.00 | 52 | 1005.1 |
| 20260507035759 | 11 | 270 | 4.8 | 14.5 | 0.00 | 0.00 | 0.00 | 52 | 1005.1 |
| 20260507034259 | 11 | 261 | 3.2 | 8.0 | 0.00 | 0.00 | 0.00 | 52 | 1005.1 |
| 20260507032759 | 11 | 337 | 6.4 | 12.9 | 0.00 | 0.00 | 0.00 | 52 | 1005.1 |
| 20260507031259 | 11 | 310 | 4.8 | 9.7 | 0.00 | 0.00 | 0.00 | 52 | 1005.1 |
| 20260507025759 | 11 | 308 | 8.0 | 11.3 | 0.00 | 0.00 | 0.00 | 52 | 1004.7 |
| 20260507024259 | 11 | 308 | 6.4 | 9.7 | 0.00 | 0.00 | 0.00 | 52 | 1004.7 |
| 20260507022759 | 11 | 329 | 6.4 | 8.0 | 0.00 | 0.00 | 0.00 | 52 | 1004.7 |
| 20260507021259 | 12 | 313 | 4.8 | 8.0 | 0.00 | 0.00 | 0.00 | 52 | 1004.7 |
| 20260507015759 | 12 | 283 | 4.8 | 14.5 | 0.00 | 0.00 | 0.00 | 52 | 1004.7 |
| 20260507014259 | 12 | 254 | 12.9 | 17.7 | 0.00 | 0.00 | 0.00 | 52 | 1005.1 |
| 20260507012759 | 12 | 346 | 3.2 | 9.7 | 0.00 | 0.00 | 0.00 | 52 | 1004.7 |
| 20260507011259 | 12 | 277 | 4.8 | 11.3 | 0.00 | 0.00 | 0.00 | 52 | 1004.7 |
| 20260507005759 | 12 | 304 | 4.8 | 9.7 | 0.00 | 0.00 | 0.00 | 51 | 1004.7 |
| 20260507004259 | 12 | 312 | 8.0 | 14.5 | 0.00 | 0.00 | 0.00 | 52 | 1004.7 |
| 20260507002759 | 12 | 333 | 4.8 | 12.9 | 0.00 | 0.00 | 0.00 | 52 | 1004.7 |
| 20260507001259 | 12 | 302 | 6.4 | 12.9 | 0.00 | 0.00 | 0.00 | 52 | 1004.7 |
| 20260506235759 | 12 | 298 | 6.4 | 17.7 | 0.00 | 0.00 | 0.00 | 52 | 1004.7 |
| 20260506234259 | 13 | 315 | 9.7 | 12.9 | 0.00 | 0.00 | 0.00 | 52 | 1005.1 |
| 20260506232759 | 13 | 325 | 6.4 | 11.3 | 0.00 | 0.00 | 0.00 | 52 | 1005.1 |
| 20260506231259 | 13 | 311 | 9.7 | 14.5 | 0.00 | 0.00 | 0.00 | 52 | 1005.1 |
| 20260506225759 | 13 | 50 | 1.6 | 9.7 | 0.00 | 0.00 | 0.00 | 52 | 1005.1 |
| 20260506224259 | 13 | 321 | 8.0 | 9.7 | 0.00 | 0.00 | 0.00 | 53 | 1005.1 |
| 20260506222759 | 13 | 274 | 8.0 | 14.5 | 0.00 | 0.00 | 0.00 | 53 | 1005.4 |
| 20260506221259 | 14 | 268 | 9.7 | 16.1 | 0.00 | 0.00 | 0.00 | 54 | 1005.4 |
| 20260506215759 | 14 | 325 | 8.0 | 11.3 | 0.00 | 0.00 | 0.00 | 52 | 1005.8 |
| 20260506214259 | 15 | 329 | 4.8 | 14.5 | 0.00 | 0.00 | 0.00 | 53 | 1005.8 |
| 20260506212759 | 15 | 277 | 3.2 | 11.3 | 0.00 | 0.00 | 0.00 | 53 | 1005.8 |
| 20260506211259 | 15 | 291 | 4.8 | 14.5 | 0.00 | 0.00 | 0.00 | 53 | 1005.8 |
| 20260506205759 | 15 | 282 | 3.2 | 11.3 | 0.00 | 0.00 | 0.00 | 52 | 1005.8 |
| 20260506204259 | 15 | 313 | 6.4 | 9.7 | 0.00 | 0.00 | 0.00 | 51 | 1005.8 |
| 20260506202759 | 15 | 289 | 4.8 | 14.5 | 0.00 | 0.00 | 0.00 | 51 | 1005.8 |
| 20260506201259 | 16 | 275 | 6.4 | 16.1 | 0.00 | 0.00 | 0.00 | 51 | 1005.8 |
| 20260506195759 | 15 | 274 | 3.2 | 12.9 | 0.00 | 0.00 | 0.00 | 50 | 1006.1 |
| 20260506194259 | 15 | 323 | 1.6 | 8.0 | 0.00 | 0.00 | 0.00 | 50 | 1006.1 |
| 20260506192759 | 15 | 320 | 4.8 | 12.9 | 0.00 | 0.00 | 0.00 | 52 | 1006.1 |
| 20260506191259 | 15 | 315 | 4.8 | 12.9 | 0.00 | 0.00 | 0.00 | 50 | 1006.1 |
| 20260506185759 | 15 | 315 | 12.9 | 17.7 | 0.00 | 0.00 | 0.00 | 51 | 1006.4 |
| 20260506184259 | 14 | 296 | 3.2 | 11.3 | 0.00 | 0.00 | 0.00 | 50 | 1006.4 |
| 20260506182759 | 14 | 296 | 4.8 | 8.0 | 0.00 | 0.00 | 0.00 | 51 | 1006.1 |
| 20260506181259 | 13 | 261 | 4.8 | 12.9 | 0.00 | 0.00 | 0.00 | 52 | 1006.4 |
| 20260506175759 | 13 | 284 | 1.6 | 3.2 | 0.00 | 0.00 | 0.00 | 52 | 1006.1 |
| 20260506174259 | 13 | 238 | 1.6 | 12.9 | 0.00 | 0.00 | 0.00 | 51 | 1006.1 |
| 20260506172759 | 13 | 344 | 8.0 | 11.3 | 0.00 | 0.00 | 0.00 | 52 | 1006.4 |
| 20260506171259 | 13 | 335 | 6.4 | 11.3 | 0.00 | 0.00 | 0.00 | 50 | 1006.1 |
| 20260506165759 | 13 | 307 | 1.6 | 9.7 | 0.00 | 0.00 | 0.00 | 52 | 1006.1 |
| 20260506164259 | 13 | 325 | 4.8 | 8.0 | 0.00 | 0.00 | 0.00 | 52 | 1006.1 |
| 20260506162759 | 12 | 309 | 6.4 | 8.0 | 0.00 | 0.00 | 0.00 | 52 | 1006.1 |
| 20260506161259 | 12 | 290 | 1.6 | 8.0 | 0.00 | 0.00 | 0.00 | 52 | 1006.1 |
| 20260506155759 | 12 | 328 | 3.2 | 8.0 | 0.00 | 0.00 | 0.00 | 52 | 1006.4 |
| 20260506154259 | 12 | 292 | 3.2 | 4.8 | 0.00 | 0.00 | 0.00 | 52 | 1005.8 |
| 20260506152759 | 12 | 283 | 1.6 | 8.0 | 0.00 | 0.00 | 0.00 | 52 | 1006.1 |
| 20260506151259 | 12 | 311 | 0.0 | 4.8 | 0.00 | 0.00 | 0.00 | 52 | 1005.8 |
| 20260506145759 | 12 | 330 | 6.4 | 9.7 | 0.00 | 0.00 | 0.00 | 52 | 1006.1 |
| 20260506144259 | 12 | 314 | 0.0 | 1.6 | 0.00 | 0.00 | 0.00 | 52 | 1005.8 |
| 20260506142759 | 12 | 301 | 0.0 | 1.6 | 0.00 | 0.00 | 0.00 | 52 | 1005.8 |
| 20260506141259 | 12 | 299 | 1.6 | 3.2 | 0.00 | 0.00 | 0.00 | 52 | 1005.8 |
| 20260506135759 | 12 | 304 | 1.6 | 3.2 | 0.00 | 0.00 | 0.00 | 52 | 1005.4 |
| 20260506134259 | 12 | 328 | 0.0 | 3.2 | 0.00 | 0.00 | 0.00 | 52 | 1005.4 |
| 20260506132759 | 12 | 253 | 1.6 | 1.6 | 0.00 | 0.00 | 0.00 | 52 | 1005.1 |
| 20260506131259 | 12 | 251 | 1.6 | 3.2 | 0.00 | 0.00 | 0.00 | 52 | 1005.4 |
| 20260506125759 | 12 | 297 | 1.6 | 3.2 | 0.00 | 0.00 | 0.00 | 52 | 1005.1 |
| 20260506124259 | 12 | 283 | 1.6 | 1.6 | 0.00 | 0.00 | 0.00 | 52 | 1005.1 |
| 20260506122759 | 12 | 289 | 0.0 | 3.2 | 0.00 | 0.00 | 0.00 | 52 | 1005.1 |
| 20260506121259 | 12 | 283 | 1.6 | 3.2 | 0.00 | 0.00 | 0.00 | 51 | 1004.7 |
| 20260506115759 | 12 | 277 | 0.0 | 1.6 | 0.00 | 0.00 | 0.00 | 50 | 1004.7 |
| 20260506114259 | 12 | 256 | 0.0 | 3.2 | 0.00 | 0.00 | 0.00 | 52 | 1004.4 |
| 20260506112759 | 12 | 275 | 1.6 | 4.8 | 0.00 | 0.00 | 0.00 | 52 | 1004.4 |
| 20260506111259 | 12 | 257 | 1.6 | 3.2 | 0.00 | 0.00 | 0.00 | 51 | 1004.4 |
| 20260506105759 | 12 | 259 | 1.6 | 3.2 | 0.00 | 0.00 | 0.00 | 52 | 1004.4 |
| 20260506104259 | 12 | 243 | 1.6 | 4.8 | 0.00 | 0.00 | 0.00 | 53 | 1004.1 |
| 20260506102759 | 12 | 273 | 1.6 | 8.0 | 0.00 | 0.00 | 0.00 | 53 | 1004.1 |
| 20260506101259 | 12 | 271 | 3.2 | 3.2 | 0.00 | 0.00 | 0.00 | 52 | 1004.4 |
| 20260506095759 | 12 | 281 | 3.2 | 4.8 | 0.00 | 0.00 | 0.00 | 53 | 1004.4 |
| 20260506094259 | 12 | 294 | 3.2 | 4.8 | 0.00 | 0.00 | 0.00 | 54 | 1004.4 |
| 20260506092759 | 12 | 249 | 1.6 | 3.2 | 0.00 | 0.00 | 0.00 | 54 | 1004.4 |
| 20260506091259 | 12 | 279 | 1.6 | 3.2 | 0.00 | 0.00 | 0.00 | 53 | 1004.1 |
| 20260506085759 | 12 | 256 | 1.6 | 4.8 | 0.00 | 0.00 | 0.00 | 54 | 1004.4 |
| 20260506084259 | 12 | 276 | 3.2 | 8.0 | 0.00 | 0.00 | 0.00 | 54 | 1004.4 |
| 20260506072759 | 12 | 272 | 3.2 | 4.8 | 0.00 | 0.00 | 0.28 | 54 | 1004.1 |
| 20260506071259 | 12 | 296 | 3.2 | 4.8 | 0.00 | 0.00 | 0.28 | 54 | 1004.1 |
| 20260506061259 | 12 | 272 | 3.2 | 3.2 | 0.00 | 0.00 | 0.28 | 54 | 1003.4 |